Location: Ballingbuur
(53.0000°N, 5.7667°E)
Time: 05:50:00
(UTC+00:00)

CZ-4B R/B - Pass Details

Date: 29 November 2020
Orbit: 485 x 653 km, 97.9° (Epoch: 23 January)

Event Time Altitude Azimuth Distance (km) Brightness Sun altitude
Rises 05:07:20 0° 14° (NNE) 2,991 6.6 -19.7°
Reaches altitude 10° 05:09:34 10° 14° (NNE) 2,075 5.8 -19.4°
Maximum altitude 05:14:08 89° 289° (WNW) 657 3.1 -18.7°
Drops below altitude 10° 05:18:35 10° 197° (SSW) 2,022 5.6 -18.1°
Sets 05:20:45 0° 197° (SSW) 2,908 6.5 -17.7°
